Probability
0 0 0 0 0 0 0 0 0 0 0 0 0 0 0 0 0 0 0 0 0 0 0 0 0 0 0 0 0 0 0 0 0 0 0 0 0 0 0 0 0 0 0
0 0 0 0 0 0 0 0 0 0 0 0 0 0 0 0 0 0 0 0 0 0 0 0 0 0 0 0 0 0 0 0 0 0 0 0 0 0 0 0 0 0 0
0 0 0 0 0 0 0 0 0 0 0 0 0 0 0 0 0 0 0 0 0 0 0 0 0 0 0 0 0 0 0 0 0 0 0 0 0 0 0 0 0 0 0
0 0 0 0 0 0 0 0 0 0 0 0 0 0 0 0 0 0 0 0 0 0 0 0 0 0 0 0 0 0 0 0 0 0 0 0 0 0 0 0 0 0 0
0 0 0 0 0 0 0 0 0 0 0 0 0 0 0 0 0 0 0 0 0 0 0 0 0 0 0 0 0 0 0 0 0 0 0 0 0 0 0 0 0 0 0
0 0 0 0 0 0 0 0 0 0 0 0 0 0 0 0 0 0 0 0 0 0 0 0 0 0 0 0 0 0 0 0 0 0 0 0 0 0 0 0 0 0 0
0 0 0 0 0 0 0 0 0 0 0 0 0 0 0 0 0 0 0 0 0 0 0 0 0 0 0 0 0 0 0 0 0 0 0 0 0 0 0 0 0 0 0
0 0 0 0 0 0 0 0 0 0 0 0 0 0 0 0 0 0 0 0 0 0 0 0 0 0 0 0 0 0 0 0 0 0 0 0 0 0 0 0 0 0 0
0 0 0 0 0 0 0 0 0 0 0 0 0 0 0 0 0 0 0 0 0 0 0 0 0 0 0 0 0 0 0 0 0 0 0 0 0 0 0 0 0 0 0
0 0 0 0 0 0 0 0 0 0 0 0 0 0 0 0 0 0 0 0 0 0 0 0 0 0 0 0 0 0 0 0 0 0 0 1 1 1 0 0 0 0 0
0 0 0 0 0 0 0 0 0 0 0 0 0 0 0 0 0 0 0 0 0 0 0 0 0 0 0 0 0 0 0 0 0 0 0 1 1 1 0 0 0 0 0
0 0 0 0 0 0 0 0 0 0 0 0 0 0 0 0 0 0 0 0 0 0 0 0 0 0 0 0 0 0 0 0 0 0 0 0 0 0 0 0 0 0 0
0 0 0 0 0 0 0 0 0 0 0 0 0 0 0 0 0 0 0 0 0 0 0 0 0 0 0 0 0 0 0 0 0 0 0 0 0 0 0 0 0 0 0
1 1 1 1 1 1 1 0 0 0 0 0 1 0 0 0 0 0 0 0 0 0 0 0 0 0 0 0 0 0 0 0 0 0 1 1 1 0 0 0 0 0 1
3 3 4 6 7 7 6 3 1 0 0 1 2 1 0 0 0 0 0 0 0 0 0 0 0 0 0 0 0 0 0 0 0 0 1 2 2 1 1 0 0 0 1
6 6 8 13 19 21 16 8 3 1 1 1 2 3 4 3 3 3 3 2 1 0 0 0 0 0 0 0 0 0 0 0 0 0 1 3 3 3 2 1 1 1 1
11 12 14 19 32 41 36 22 10 3 3 5 8 12 15 14 14 14 12 8 6 5 6 6 4 3 3 1 0 0 0 0 0 1 2 3 3 4 4 4 2 1 2
27 31 33 35 47 60 62 49 31 21 20 22 27 33 37 35 35 37 31 24 23 21 20 20 16 14 13 9 4 1 0 0 0 1 2 2 2 3 4 6 4 3 3
53 59 64 64 66 76 83 77 63 55 53 52 55 61 63 61 62 62 55 48 45 42 38 34 31 30 27 20 11 4 1 0 0 0 1 1 1 1 2 4 4 3 3
74 80 86 86 85 89 94 93 88 83 81 78 78 80 81 80 81 79 74 68 65 60 52 44 39 38 34 26 17 8 2 0 0 0 0 0 0 0 0 2 4 4 4
83 87 91 93 93 95 97 98 96 94 93 91 88 87 87 87 87 85 82 81 80 72 62 51 45 40 34 27 19 11 4 1 0 0 0 0 0 0 0 1 3 5 6
90 91 93 94 94 94 95 96 96 95 93 92 91 89 87 87 87 85 84 86 85 79 68 59 52 44 36 30 23 14 8 5 2 1 1 1 0 0 0 1 2 4 6
94 93 93 93 92 93 94 94 94 92 90 91 91 90 88 87 85 83 81 81 81 77 72 65 57 48 40 35 29 22 16 11 6 3 1 1 0 0 0 0 0 1 2
85 86 88 89 90 91 93 93 91 91 90 90 90 89 87 85 83 80 76 74 73 71 68 64 56 46 38 35 33 31 25 17 10 4 1 1 0 0 0 0 0 0 0
64 67 74 81 85 88 91 91 91 91 90 89 88 86 84 83 81 77 71 67 66 63 61 56 49 39 33 32 32 31 26 18 10 4 1 0 0 0 0 0 0 0 0
45 51 62 73 79 84 89 91 91 91 90 89 86 83 82 83 82 75 67 64 62 59 57 52 41 33 30 30 29 27 22 15 9 4 1 0 0 0 0 0 0 0 0
Wind_Speed
14 17 19 15 13 13 13 14 14 14 15 15 15 14 13 12 11 10 9 9 8 8 9 9 9 9 9 10 10 10 10 9 9 9 9 8 8 7 7 6 5 8 9
17 19 19 16 15 14 14 14 13 14 14 14 14 13 13 12 11 10 9 8 8 7 8 8 8 8 8 8 8 8 8 7 7 7 6 8 7 5 5 2 5 8 7
18 19 19 16 15 15 14 14 14 14 14 14 13 13 12 11 11 10 9 8 7 7 7 7 7 7 7 7 7 7 6 5 5 4 4 6 9 6 3 3 2 5 5
18 18 18 18 16 15 15 14 14 13 13 13 12 12 11 10 10 9 9 8 7 7 7 6 6 6 6 6 5 5 5 4 3 4 7 3 5 8 4 4 4 5 5
17 17 17 19 17 16 15 14 14 13 13 12 12 11 10 10 9 9 8 8 7 7 6 6 5 5 5 5 4 4 4 3 4 9 4 3 2 7 4 5 6 7 7
17 16 18 19 17 16 15 14 14 13 12 12 11 10 10 9 9 9 8 8 7 7 6 5 5 4 4 4 4 4 5 5 8 10 6 6 5 7 6 7 9 10 10
16 15 19 18 16 15 15 14 13 13 12 11 11 10 9 9 8 8 8 7 7 6 5 5 4 4 5 5 5 5 6 7 10 8 6 7 6 5 6 9 11 11 12
14 14 17 17 15 15 14 14 13 12 12 11 10 10 9 9 8 7 7 7 7 6 5 5 4 4 5 5 6 6 6 9 10 9 8 8 4 4 8 11 12 12 12
14 13 14 16 15 14 13 13 13 12 11 11 10 10 9 9 8 8 7 7 7 6 6 6 6 6 6 6 7 7 8 9 12 8 8 7 7 7 10 12 12 13 12
12 12 13 14 14 14 14 14 12 12 12 11 10 10 9 9 9 9 9 9 8 7 7 7 7 8 8 8 9 9 9 10 14 11 7 5 8 8 12 13 14 13 13
12 11 11 14 13 13 13 14 14 13 12 12 12 12 10 11 11 11 11 8 8 9 9 9 9 10 10 12 13 11 10 10 11 7 5 3 6 10 13 13 14 14 14
15 14 11 12 12 12 10 10 10 11 12 12 10 11 10 8 6 7 8 8 9 10 11 12 11 11 13 9 11 13 8 10 8 6 5 7 8 11 13 13 13 14 13
15 14 13 11 10 11 8 8 7 7 7 10 11 10 8 7 6 7 6 9 10 11 10 9 10 9 7 5 5 6 6 6 5 5 3 9 9 11 12 12 12 12 12
14 14 13 12 10 10 9 7 7 7 7 7 9 11 9 6 6 6 5 6 5 5 6 6 5 7 7 7 8 7 7 6 5 4 3 6 8 10 12 11 11 11 11
13 13 13 12 11 10 9 7 8 8 7 8 7 9 9 8 7 7 6 5 7 6 6 6 6 6 7 8 7 7 8 7 8 7 4 8 10 11 12 12 12 12 11
13 13 12 12 12 11 9 9 8 8 7 9 8 10 11 9 7 7 7 7 7 7 6 6 7 6 7 6 7 7 8 9 7 7 8 6 12 12 12 13 12 12 12
12 12 12 12 13 13 12 12 9 9 9 9 8 9 10 11 9 8 8 7 7 7 7 7 7 6 7 7 7 8 8 8 8 8 9 7 7 11 14 13 12 12 12
11 11 12 11 13 13 12 11 9 9 9 8 8 8 11 11 10 9 9 8 7 7 7 6 7 6 6 6 7 7 7 6 8 8 9 8 7 7 8 12 11 11 12
11 11 11 12 12 12 12 10 11 9 9 8 8 8 9 11 11 10 9 7 8 7 6 7 6 6 6 6 7 7 8 7 7 8 8 9 7 7 7 5 10 11 12
10 11 11 12 12 11 10 9 9 10 9 9 9 9 10 9 11 10 9 10 10 7 7 7 7 6 6 7 8 8 8 9 8 7 8 7 5 6 6 6 5 8 12
9 10 10 11 11 10 9 9 9 9 9 9 10 11 11 11 11 10 9 9 9 8 8 8 7 7 7 6 7 8 8 9 7 6 6 5 5 4 4 5 6 5 4
6 8 9 10 11 11 9 8 7 8 8 8 8 10 12 12 12 10 11 9 8 7 9 8 7 6 6 5 5 6 6 6 5 5 4 5 5 5 5 6 4 5 6
4 5 6 8 9 11 11 8 8 7 8 9 10 9 11 12 11 11 10 9 8 8 7 7 7 7 6 5 5 5 5 5 5 4 4 5 4 5 6 5 6 6 6
5 5 5 6 7 8 9 10 13 11 11 12 9 8 9 10 10 9 9 8 8 6 6 6 6 6 6 6 4 5 6 6 6 6 5 4 4 5 6 6 7 6 6
7 6 6 6 7 7 8 10 11 12 11 9 7 9 9 8 9 9 8 7 7 6 7 7 6 6 5 6 5 4 5 5 7 6 7 6 5 5 4 6 5 5 4
7 7 7 7 7 7 8 9 10 12 12 11 11 10 8 6 7 9 8 7 7 6 7 7 7 8 5 5 5 4 5 4 4 5 6 7 6 5 5 5 5 4 4
Wind_Direction
159 145 148 160 157 149 143 141 143 146 148 149 150 151 151 149 145 140 134 125 116 108 101 97 96 96 98 101 101 100 100 99 101 103 102 99 99 104 111 128 177 121 113
150 145 151 160 159 153 146 142 141 144 148 150 152 153 154 154 152 147 143 138 130 120 111 108 107 106 107 108 109 109 108 107 106 107 121 135 122 115 123 131 344 91 131
148 146 155 161 161 156 149 145 144 146 149 151 153 155 156 157 157 155 153 150 144 134 126 121 118 116 116 117 118 119 120 119 117 124 224 177 133 139 146 151 112 126 151
149 151 159 159 163 159 154 150 149 149 151 152 154 156 158 159 161 162 160 159 156 149 142 136 130 127 127 129 131 134 138 144 156 212 225 158 147 132 177 187 185 185 186
153 155 152 161 165 162 159 156 154 154 154 156 157 159 162 164 167 167 167 167 165 160 156 151 146 144 145 149 155 164 175 191 214 245 236 225 207 131 198 217 213 213 211
160 158 152 167 167 166 164 161 160 159 160 161 162 164 167 171 175 174 173 174 172 169 168 167 168 167 171 177 184 194 206 219 237 237 229 234 229 155 213 238 231 224 222
164 160 155 169 171 170 169 167 165 164 165 167 168 170 172 176 180 178 178 179 179 181 185 188 194 197 200 204 209 216 223 231 253 258 242 240 242 148 232 254 248 240 230
166 164 151 168 176 176 175 173 171 171 171 173 175 176 178 181 184 184 187 189 192 198 205 211 215 221 224 224 226 231 237 251 248 247 245 242 197 177 245 260 258 249 240
171 171 158 171 178 181 182 181 179 178 178 180 182 183 185 188 192 195 199 203 207 213 221 230 235 239 241 238 236 238 242 249 268 258 250 249 157 200 244 256 262 256 246
179 181 169 177 178 182 183 186 187 187 187 188 191 193 194 198 203 206 212 204 216 224 231 239 246 249 251 248 245 243 245 248 248 249 240 221 162 220 246 253 257 257 248
188 191 188 181 181 189 189 176 187 192 195 197 198 199 206 214 206 197 214 190 220 233 239 244 247 250 252 239 236 239 242 245 245 250 253 154 185 235 248 251 252 254 250
190 192 195 197 182 193 194 177 196 199 192 208 207 199 211 222 231 228 153 196 230 241 245 244 248 249 244 241 213 212 236 239 260 249 224 170 215 242 250 251 250 251 250
191 192 193 202 194 200 195 194 199 206 197 208 213 212 223 227 219 226 210 197 214 226 237 220 227 239 242 250 262 237 252 271 263 261 219 171 220 245 253 252 251 250 249
195 194 194 195 198 210 212 204 207 212 207 213 203 215 219 222 233 233 233 240 228 226 236 254 253 253 259 261 258 262 260 254 263 267 243 190 229 248 256 256 252 249 247
198 198 199 194 198 205 216 225 219 223 221 217 222 213 230 230 229 231 234 242 249 245 235 236 251 262 265 258 258 262 270 268 265 264 252 203 223 242 254 257 253 247 244
203 202 199 200 200 204 211 221 230 230 221 236 223 222 221 234 235 236 234 232 245 250 256 260 256 258 261 267 269 271 273 276 271 271 272 235 210 225 242 251 253 249 244
205 206 203 202 203 205 213 220 226 230 228 229 229 227 225 232 230 234 242 237 239 243 243 250 259 260 260 265 264 268 267 267 275 278 278 278 261 221 220 235 246 249 246
214 206 209 208 205 206 214 222 229 231 232 231 232 228 223 233 234 235 242 241 239 244 244 245 255 261 265 271 274 276 274 266 264 271 270 267 272 277 232 216 233 244 246
219 216 214 216 216 213 213 217 229 232 236 236 233 232 226 228 231 233 242 246 245 245 248 253 247 258 266 271 272 263 269 272 274 269 276 276 271 268 272 216 215 234 243
222 221 222 216 218 218 215 216 227 230 229 231 232 228 230 228 229 233 237 240 245 244 243 247 256 256 265 269 277 284 279 276 271 273 273 268 261 264 272 287 258 225 221
229 229 227 228 218 217 220 220 219 224 227 229 230 230 230 234 234 233 242 236 236 240 243 243 244 249 253 262 270 274 272 262 263 267 264 281 276 273 280 285 279 294 243
242 240 237 231 227 222 223 227 233 238 238 236 235 235 233 236 239 237 239 241 238 240 239 237 239 252 254 246 264 282 280 268 222 244 261 257 275 279 276 272 284 270 276
307 283 269 255 245 235 232 228 232 230 238 240 236 233 232 234 238 242 244 243 242 239 237 232 227 234 242 241 236 256 280 291 312 260 254 269 276 289 284 290 275 274 268
331 311 293 280 267 258 247 240 237 234 237 239 240 238 236 236 237 236 237 236 237 235 231 232 225 229 236 245 233 237 258 284 282 288 266 254 259 270 283 287 286 271 261
337 323 311 302 287 273 262 253 250 250 251 253 245 241 238 233 230 225 221 219 222 219 218 220 216 226 229 241 244 241 242 245 247 269 287 299 296 286 291 287 286 287 283
337 332 323 309 300 291 277 266 258 258 258 256 248 242 234 226 224 221 213 208 212 212 208 206 206 214 225 239 250 247 253 259 262 265 281 291 296 299 308 306 294 296 294